Home   Weather   Buxtehude   Past weeks

Flag for Germany Past Weather in Buxtehude, Lower Saxony, Germany — Yesterday and Last 2 Weeks

Now
25 °F

Fog.


Feels Like: 25 °F
Forecast: 30 / 38 °F
Wind: No wind

Location: Hamburg-Fuhlsbuettel

Current Time: Dec 3, 2016 at 3:35:31 am

Latest Report: Dec 3, 2016 at 2:50 am


Visibility: N/A

Pressure: 30.24 "Hg

Humidity: 100%

Dew Point: 25 °F

Location of BuxtehudeLocation

Past Weather in Buxtehude — Graph

°F

Buxtehude Temperature Yesterday

Maximum temperature yesterday: 46 °F (at 12:20 am)
Minimum temperature yesterday: 25 °F (at 11:50 pm)
Average temperature yesterday: 38 °F

High & Low Weather Summary for the Past Weeks

 TemperatureHumidityPressure
High61 °F (Nov 21, 1:20 pm)100% (Nov 23, 6:50 pm)30.54 "Hg (Nov 23, 6:50 pm)
Low19 °F (Nov 29, 2:20 am)53% (Dec 2, 12:20 pm)29.27 "Hg (Nov 18, 8:20 am)
Average40 °F85%30.01 "Hg
* Reported Nov 18 2:20 am — Dec 3 2:20 am, Buxtehude, Weather by CustomWeather, © 2016

Note: Actual official high and low records may vary slightly from our data, if they occured in-between our weather recording intervals... More about our weather records

Advertising

Buxtehude Weather History for the Previous 24 Hours

Scroll right to see more
 ConditionsComfort  
Time TempWeatherWind HumidityBarometerVisibility
2:20 am
Sat, Dec 3
25 °FFog.No wind100%30.24 "HgN/A
1:50 am27 °FFog.No wind100%30.24 "HgN/A
1:20 am25 °FFog.No wind100%30.24 "HgN/A
12:50 am25 °FFog.No wind100%30.24 "HgN/A
12:20 am27 °FFog.No wind100%30.24 "HgN/A
11:50 pm
Fri, Dec 2
25 °FFog.No wind100%30.24 "HgN/A
11:20 pm27 °FFog.No wind93%30.21 "HgN/A
10:50 pm28 °FFog.No wind93%30.21 "HgN/A
10:20 pm28 °FClear.1 mph100%30.21 "Hg10 mi
9:50 pm28 °FClear.2 mph93%30.21 "Hg10 mi
9:20 pm28 °FClear.2 mph93%30.21 "Hg10 mi
8:50 pm28 °FPassing clouds.3 mph100%30.21 "HgN/A
8:20 pm28 °FClear.2 mph93%30.21 "Hg10 mi
7:50 pm30 °FPassing clouds.3 mph93%30.21 "HgN/A
7:20 pm30 °FPassing clouds.3 mph93%30.21 "HgN/A
6:50 pm30 °FPassing clouds.3 mph93%30.18 "HgN/A
6:20 pm32 °FPassing clouds.3 mph87%30.18 "HgN/A
5:50 pm34 °FClear.3 mph81%30.18 "Hg10 mi
5:20 pm36 °FClear.5 mph75%30.18 "Hg10 mi
4:50 pm36 °FClear.5 mph75%30.18 "Hg10 mi
4:20 pm39 °FClear.5 mph65%30.18 "Hg10 mi
3:50 pm41 °FSunny.6 mph61%30.18 "Hg10 mi
3:20 pm41 °FSunny.6 mph61%30.15 "Hg10 mi
2:50 pm43 °FSunny.7 mph57%30.15 "Hg10 mi
2:20 pm43 °FSunny.8 mph53%30.15 "Hg10 mi
1:50 pm43 °FSunny.8 mph53%30.15 "Hg10 mi
1:20 pm43 °FSunny.8 mph57%30.15 "Hg10 mi
12:50 pm43 °FPassing clouds.7 mph53%30.15 "HgN/A
12:20 pm43 °FSunny.7 mph53%30.15 "Hg10 mi
11:50 am41 °FPassing clouds.8 mph61%30.15 "HgN/A
11:20 am41 °FPassing clouds.7 mph61%30.15 "HgN/A
10:50 am39 °FSunny.6 mph65%30.12 "Hg10 mi
10:20 am37 °FSunny.6 mph70%30.12 "Hg10 mi
9:50 am37 °FSunny.6 mph70%30.12 "Hg10 mi
9:20 am36 °FSunny.5 mph75%30.09 "Hg10 mi
8:50 am36 °FSunny.6 mph75%30.09 "Hg10 mi
8:20 am36 °FSunny.6 mph75%30.07 "Hg10 mi
7:50 am37 °FClear.7 mph70%30.07 "Hg10 mi
7:20 am37 °FClear.8 mph70%30.04 "Hg10 mi
6:50 am37 °FClear.10 mph75%30.04 "Hg10 mi
6:20 am39 °FClear.9 mph70%30.04 "Hg10 mi
5:50 am39 °FClear.10 mph70%30.01 "Hg10 mi
5:20 am41 °FClear.12 mph66%30.01 "Hg10 mi
4:50 am41 °FClear.15 mph70%29.98 "Hg10 mi
4:20 am43 °FPassing clouds.18 mph66%29.98 "HgN/A
3:50 am43 °FClear.21 mph66%29.95 "Hg10 mi
3:20 am45 °FPassing clouds.24 mph66%29.95 "HgN/A
Weather by CustomWeather, © 2016

See weather overviewHow to use our weather pages